Data supplied by UK-AIR on 15/3/2019
All Data GMT hour ending 
Status: R =Ratified P=Provisional,P*=As supplied
,,Dumbarton Roadside,,,,,,,,,,,,,,,,,,,,,,,
Date,time,"Nitric oxide",status,unit,"Nitrogen dioxide",status,unit,"Nitrogen oxides as nitrogen dioxide",status,unit
 
01-01-2018,01:00,0.70107,R,ugm-3,1.86669,R,ugm-3,2.94164,R,ugm-3
01-01-2018,02:00,,,,,,,,,
01-01-2018,03:00,0.74230,R,ugm-3,4.71313,R,ugm-3,5.85131,R,ugm-3
01-01-2018,04:00,0.64952,R,ugm-3,3.08082,R,ugm-3,4.07673,R,ugm-3
01-01-2018,05:00,1.11346,R,ugm-3,4.86346,R,ugm-3,6.57073,R,ugm-3
01-01-2018,06:00,0.98974,R,ugm-3,4.81335,R,ugm-3,6.33093,R,ugm-3
01-01-2018,07:00,0.52580,R,ugm-3,1.44798,R,ugm-3,2.25419,R,ugm-3
01-01-2018,08:00,0.64952,R,ugm-3,2.16955,R,ugm-3,3.16546,R,ugm-3
01-01-2018,09:00,0.68045,R,ugm-3,1.54659,R,ugm-3,2.58993,R,ugm-3
01-01-2018,10:00,0.83509,R,ugm-3,2.50851,R,ugm-3,3.78896,R,ugm-3
01-01-2018,11:00,0.83509,R,ugm-3,3.03608,R,ugm-3,4.31654,R,ugm-3
01-01-2018,12:00,1.02067,R,ugm-3,2.65561,R,ugm-3,4.22062,R,ugm-3
01-01-2018,13:00,6.77353,R,ugm-3,10.52531,R,ugm-3,20.91124,R,ugm-3
01-01-2018,14:00,10.48505,R,ugm-3,24.35474,R,ugm-3,40.43159,R,ugm-3
01-01-2018,15:00,16.82557,R,ugm-3,30.60394,R,ugm-3,56.40279,R,ugm-3
01-01-2018,16:00,10.45412,R,ugm-3,24.11439,R,ugm-3,40.14383,R,ugm-3
01-01-2018,17:00,14.78424,R,ugm-3,37.76272,R,ugm-3,60.43157,R,ugm-3
01-01-2018,18:00,23.38260,R,ugm-3,44.91445,R,ugm-3,80.76727,R,ugm-3
01-01-2018,19:00,10.91807,R,ugm-3,26.76034,R,ugm-3,43.50114,R,ugm-3
01-01-2018,20:00,8.75301,R,ugm-3,17.03450,R,ugm-3,30.45559,R,ugm-3
01-01-2018,21:00,6.89725,R,ugm-3,15.27565,R,ugm-3,25.85128,R,ugm-3
01-01-2018,22:00,11.04178,R,ugm-3,35.68334,R,ugm-3,52.61383,R,ugm-3
01-01-2018,23:00,2.25784,R,ugm-3,9.63153,R,ugm-3,13.09351,R,ugm-3
01-01-2018,24:00,3.68059,R,ugm-3,11.86247,R,ugm-3,17.50597,R,ugm-3
02-01-2018,01:00,8.22907,R,ugm-3,23.35017,R,ugm-3,35.96790,R,ugm-3
02-01-2018,02:00,,,,,,,,,
02-01-2018,03:00,1.39563,R,ugm-3,7.95800,R,ugm-3,10.09794,R,ugm-3
02-01-2018,04:00,1.45766,R,ugm-3,5.60287,R,ugm-3,7.83792,R,ugm-3
02-01-2018,05:00,3.47358,R,ugm-3,7.41656,R,ugm-3,12.74264,R,ugm-3
02-01-2018,06:00,2.63620,R,ugm-3,11.34522,R,ugm-3,15.38733,R,ugm-3
02-01-2018,07:00,1.33361,R,ugm-3,6.70671,R,ugm-3,8.75155,R,ugm-3
02-01-2018,08:00,1.64375,R,ugm-3,9.93375,R,ugm-3,12.45412,R,ugm-3
02-01-2018,09:00,1.05448,R,ugm-3,7.66364,R,ugm-3,9.28049,R,ugm-3
02-01-2018,10:00,2.69823,R,ugm-3,14.76035,R,ugm-3,18.89757,R,ugm-3
02-01-2018,11:00,0.62028,R,ugm-3,6.93492,R,ugm-3,7.88601,R,ugm-3
02-01-2018,12:00,4.71414,R,ugm-3,11.23656,R,ugm-3,18.46480,R,ugm-3
02-01-2018,13:00,20.65538,R,ugm-3,33.72504,R,ugm-3,65.39617,R,ugm-3
02-01-2018,14:00,21.24465,R,ugm-3,37.53388,R,ugm-3,70.10855,R,ugm-3
02-01-2018,15:00,35.75923,R,ugm-3,63.31582,R,ugm-3,118.14588,R,ugm-3
02-01-2018,16:00,19.66293,R,ugm-3,47.98941,R,ugm-3,78.13881,R,ugm-3
02-01-2018,17:00,4.46603,R,ugm-3,11.32848,R,ugm-3,18.17629,R,ugm-3
02-01-2018,18:00,2.04693,R,ugm-3,11.76790,R,ugm-3,14.90648,R,ugm-3
02-01-2018,19:00,5.86166,R,ugm-3,28.61505,R,ugm-3,37.60280,R,ugm-3
02-01-2018,20:00,4.65211,R,ugm-3,28.35390,R,ugm-3,35.48704,R,ugm-3
02-01-2018,21:00,5.67558,R,ugm-3,19.33137,R,ugm-3,28.03380,R,ugm-3
02-01-2018,22:00,4.18690,R,ugm-3,9.49645,R,ugm-3,15.91627,R,ugm-3
02-01-2018,23:00,2.76025,R,ugm-3,6.73115,R,ugm-3,10.96348,R,ugm-3
02-01-2018,24:00,2.48113,R,ugm-3,7.63999,R,ugm-3,11.44433,R,ugm-3
03-01-2018,01:00,1.86593,R,ugm-3,5.55951,R,ugm-3,8.42056,R,ugm-3
03-01-2018,02:00,,,,,,,,,
03-01-2018,03:00,1.11956,R,ugm-3,7.82881,R,ugm-3,9.54544,R,ugm-3
03-01-2018,04:00,1.86593,R,ugm-3,9.28769,R,ugm-3,12.14874,R,ugm-3
03-01-2018,05:00,2.73670,R,ugm-3,10.31479,R,ugm-3,14.51099,R,ugm-3
03-01-2018,06:00,8.30338,R,ugm-3,33.69387,R,ugm-3,46.42554,R,ugm-3
03-01-2018,07:00,22.26674,R,ugm-3,54.03292,R,ugm-3,88.17478,R,ugm-3
03-01-2018,08:00,85.95708,R,ugm-3,84.37142,R,ugm-3,216.17043,R,ugm-3
03-01-2018,09:00,72.46020,R,ugm-3,76.18898,R,ugm-3,187.29307,R,ugm-3
03-01-2018,10:00,,,,,,,,,
03-01-2018,11:00,,,,,,,,,
03-01-2018,12:00,,,,,,,,,
03-01-2018,13:00,,,,,,,,,
03-01-2018,14:00,,,,,,,,,
03-01-2018,15:00,2.67450,R,ugm-3,6.40879,R,ugm-3,10.50962,R,ugm-3
03-01-2018,16:00,1.74153,R,ugm-3,6.44124,R,ugm-3,9.11156,R,ugm-3
03-01-2018,17:00,16.29577,R,ugm-3,29.58641,R,ugm-3,54.57291,R,ugm-3
03-01-2018,18:00,55.69795,R,ugm-3,80.10015,R,ugm-3,165.50247,R,ugm-3
03-01-2018,19:00,39.61987,R,ugm-3,67.43887,R,ugm-3,128.18849,R,ugm-3
03-01-2018,20:00,15.17621,R,ugm-3,35.54546,R,ugm-3,58.81533,R,ugm-3
03-01-2018,21:00,6.99723,R,ugm-3,16.36468,R,ugm-3,27.09362,R,ugm-3
03-01-2018,22:00,7.58811,R,ugm-3,24.23277,R,ugm-3,35.86771,R,ugm-3
03-01-2018,23:00,2.73670,R,ugm-3,12.48421,R,ugm-3,16.68041,R,ugm-3
03-01-2018,24:00,4.47823,R,ugm-3,15.02050,R,ugm-3,21.88702,R,ugm-3
04-01-2018,01:00,3.06308,R,ugm-3,10.18792,R,ugm-3,14.88458,R,ugm-3
04-01-2018,02:00,,,,,,,,,
04-01-2018,03:00,3.57014,R,ugm-3,17.62262,R,ugm-3,23.09676,R,ugm-3
04-01-2018,04:00,3.35283,R,ugm-3,16.89722,R,ugm-3,22.03816,R,ugm-3
04-01-2018,05:00,1.76955,R,ugm-3,12.01091,R,ugm-3,14.72419,R,ugm-3
04-01-2018,06:00,8.16476,R,ugm-3,24.00263,R,ugm-3,36.52175,R,ugm-3
04-01-2018,07:00,14.21848,R,ugm-3,35.94053,R,ugm-3,57.74190,R,ugm-3
04-01-2018,08:00,22.91100,R,ugm-3,36.95142,R,ugm-3,72.08114,R,ugm-3
04-01-2018,09:00,17.01251,R,ugm-3,35.36152,R,ugm-3,61.44700,R,ugm-3
04-01-2018,10:00,27.00891,R,ugm-3,41.63902,R,ugm-3,83.05210,R,ugm-3
04-01-2018,11:00,40.35813,R,ugm-3,48.06859,R,ugm-3,109.95020,R,ugm-3
04-01-2018,12:00,37.25366,R,ugm-3,45.80345,R,ugm-3,102.92493,R,ugm-3
04-01-2018,13:00,36.38441,R,ugm-3,44.29730,R,ugm-3,100.08596,R,ugm-3
04-01-2018,14:00,50.13722,R,ugm-3,51.55160,R,ugm-3,128.42760,R,ugm-3
04-01-2018,15:00,63.92108,R,ugm-3,63.37766,R,ugm-3,161.38860,R,ugm-3
04-01-2018,16:00,53.70736,R,ugm-3,61.42718,R,ugm-3,143.77732,R,ugm-3
04-01-2018,17:00,85.90074,R,ugm-3,76.87998,R,ugm-3,208.59260,R,ugm-3
04-01-2018,18:00,83.07567,R,ugm-3,77.89153,R,ugm-3,205.27244,R,ugm-3
04-01-2018,19:00,87.91864,R,ugm-3,77.34665,R,ugm-3,212.15336,R,ugm-3
04-01-2018,20:00,68.14316,R,ugm-3,72.49420,R,ugm-3,176.97892,R,ugm-3
04-01-2018,21:00,22.32115,R,ugm-3,44.25557,R,ugm-3,78.48086,R,ugm-3
04-01-2018,22:00,12.66625,R,ugm-3,37.64694,R,ugm-3,57.06824,R,ugm-3
04-01-2018,23:00,1.83164,R,ugm-3,18.07485,R,ugm-3,20.88332,R,ugm-3
04-01-2018,24:00,5.43283,R,ugm-3,21.31062,R,ugm-3,29.64084,R,ugm-3
05-01-2018,01:00,3.14039,R,ugm-3,12.73075,R,ugm-3,17.54594,R,ugm-3
05-01-2018,02:00,,,,,,,,,
05-01-2018,03:00,3.03708,R,ugm-3,13.88171,R,ugm-3,18.53850,R,ugm-3
05-01-2018,04:00,2.32430,R,ugm-3,10.65218,R,ugm-3,14.21605,R,ugm-3
05-01-2018,05:00,3.56392,R,ugm-3,11.44097,R,ugm-3,16.90558,R,ugm-3
05-01-2018,06:00,7.12785,R,ugm-3,16.68643,R,ugm-3,27.61565,R,ugm-3
05-01-2018,07:00,12.05536,R,ugm-3,20.99374,R,ugm-3,39.47837,R,ugm-3
05-01-2018,08:00,36.81688,R,ugm-3,47.81531,R,ugm-3,104.26708,R,ugm-3
05-01-2018,09:00,54.35758,R,ugm-3,55.54756,R,ugm-3,138.89470,R,ugm-3
05-01-2018,10:00,51.44446,R,ugm-3,48.10354,R,ugm-3,126.98395,R,ugm-3
05-01-2018,11:00,45.99011,R,ugm-3,51.03969,R,ugm-3,121.55687,R,ugm-3
05-01-2018,12:00,50.35979,R,ugm-3,43.66722,R,ugm-3,120.88449,R,ugm-3
05-01-2018,13:00,54.38857,R,ugm-3,42.86889,R,ugm-3,126.26354,R,ugm-3
05-01-2018,14:00,42.45718,R,ugm-3,38.44657,R,ugm-3,103.54667,R,ugm-3
05-01-2018,15:00,44.93643,R,ugm-3,46.17164,R,ugm-3,115.07320,R,ugm-3
05-01-2018,16:00,54.57452,R,ugm-3,52.57344,R,ugm-3,136.25320,R,ugm-3
05-01-2018,17:00,68.36535,R,ugm-3,63.89418,R,ugm-3,168.71959,R,ugm-3
05-01-2018,18:00,70.47271,R,ugm-3,61.19124,R,ugm-3,169.24789,R,ugm-3
05-01-2018,19:00,14.37966,R,ugm-3,17.81409,R,ugm-3,39.86259,R,ugm-3
05-01-2018,20:00,11.80743,R,ugm-3,11.24015,R,ugm-3,29.34463,R,ugm-3
05-01-2018,21:00,7.40676,R,ugm-3,9.19877,R,ugm-3,20.55565,R,ugm-3
05-01-2018,22:00,4.83454,R,ugm-3,8.00388,R,ugm-3,15.41674,R,ugm-3
05-01-2018,23:00,4.98949,R,ugm-3,8.00642,R,ugm-3,15.65687,R,ugm-3
05-01-2018,24:00,3.65690,R,ugm-3,6.06345,R,ugm-3,11.67061,R,ugm-3
06-01-2018,01:00,3.17615,R,ugm-3,5.67593,R,ugm-3,10.54596,R,ugm-3
06-01-2018,02:00,,,,,,,,,
06-01-2018,03:00,1.76338,R,ugm-3,3.95931,R,ugm-3,6.66313,R,ugm-3
06-01-2018,04:00,2.69148,R,ugm-3,3.73465,R,ugm-3,7.86153,R,ugm-3
06-01-2018,05:00,2.25837,R,ugm-3,6.02858,R,ugm-3,9.49136,R,ugm-3
06-01-2018,06:00,2.81523,R,ugm-3,8.76995,R,ugm-3,13.08658,R,ugm-3
06-01-2018,07:00,7.67227,R,ugm-3,17.47709,R,ugm-3,29.24107,R,ugm-3
06-01-2018,08:00,11.16810,R,ugm-3,25.97044,R,ugm-3,43.09462,R,ugm-3
06-01-2018,09:00,19.14973,R,ugm-3,41.63096,R,ugm-3,70.99348,R,ugm-3
06-01-2018,10:00,43.96085,R,ugm-3,48.12048,R,ugm-3,115.52618,R,ugm-3
06-01-2018,11:00,20.35626,R,ugm-3,29.76232,R,ugm-3,60.97482,R,ugm-3
06-01-2018,12:00,52.18998,R,ugm-3,61.72375,R,ugm-3,141.74727,R,ugm-3
06-01-2018,13:00,28.74007,R,ugm-3,41.93001,R,ugm-3,85.99750,R,ugm-3
06-01-2018,14:00,20.91312,R,ugm-3,29.57959,R,ugm-3,61.64592,R,ugm-3
06-01-2018,15:00,36.69076,R,ugm-3,42.72982,R,ugm-3,98.98820,R,ugm-3
06-01-2018,16:00,36.69076,R,ugm-3,45.07869,R,ugm-3,101.33707,R,ugm-3
06-01-2018,17:00,30.62720,R,ugm-3,41.62501,R,ugm-3,88.58605,R,ugm-3
06-01-2018,18:00,26.60544,R,ugm-3,31.49331,R,ugm-3,72.28775,R,ugm-3
06-01-2018,19:00,24.99674,R,ugm-3,45.41670,R,ugm-3,83.74450,R,ugm-3
06-01-2018,20:00,23.26429,R,ugm-3,53.25019,R,ugm-3,88.92161,R,ugm-3
06-01-2018,21:00,15.96327,R,ugm-3,48.62600,R,ugm-3,73.10267,R,ugm-3
06-01-2018,22:00,35.66986,R,ugm-3,61.02491,R,ugm-3,115.71793,R,ugm-3
06-01-2018,23:00,32.85463,R,ugm-3,61.65045,R,ugm-3,112.02684,R,ugm-3
06-01-2018,24:00,14.04520,R,ugm-3,51.85461,R,ugm-3,73.39029,R,ugm-3
07-01-2018,01:00,22.27656,R,ugm-3,49.73155,R,ugm-3,83.88848,R,ugm-3
07-01-2018,02:00,,,,,,,,,
07-01-2018,03:00,31.16042,R,ugm-3,52.40907,R,ugm-3,100.18772,R,ugm-3
07-01-2018,04:00,11.88976,R,ugm-3,37.07828,R,ugm-3,55.30898,R,ugm-3
07-01-2018,05:00,15.59565,R,ugm-3,41.29992,R,ugm-3,65.21292,R,ugm-3
07-01-2018,06:00,13.31035,R,ugm-3,40.35441,R,ugm-3,60.76333,R,ugm-3
07-01-2018,07:00,35.05162,R,ugm-3,50.70087,R,ugm-3,104.44594,R,ugm-3
07-01-2018,08:00,52.43846,R,ugm-3,57.91579,R,ugm-3,138.32030,R,ugm-3
07-01-2018,09:00,72.14148,R,ugm-3,60.90943,R,ugm-3,171.52482,R,ugm-3
07-01-2018,10:00,98.82394,R,ugm-3,67.93772,R,ugm-3,219.46565,R,ugm-3
07-01-2018,11:00,77.23709,R,ugm-3,60.03382,R,ugm-3,178.46237,R,ugm-3
07-01-2018,12:00,79.33710,R,ugm-3,56.23971,R,ugm-3,177.88823,R,ugm-3
07-01-2018,13:00,60.93114,R,ugm-3,54.46288,R,ugm-3,147.88932,R,ugm-3
07-01-2018,14:00,44.10019,R,ugm-3,52.56765,R,ugm-3,120.18699,R,ugm-3
07-01-2018,15:00,43.05018,R,ugm-3,55.85221,R,ugm-3,121.86157,R,ugm-3
07-01-2018,16:00,87.73713,R,ugm-3,68.00008,R,ugm-3,202.52847,R,ugm-3
07-01-2018,17:00,101.04748,R,ugm-3,71.89649,R,ugm-3,226.83380,R,ugm-3
07-01-2018,18:00,192.39786,R,ugm-3,88.56853,R,ugm-3,383.57448,R,ugm-3
07-01-2018,19:00,157.31537,R,ugm-3,81.88469,R,ugm-3,323.09822,R,ugm-3
07-01-2018,20:00,140.42265,R,ugm-3,74.53413,R,ugm-3,289.84585,R,ugm-3
07-01-2018,21:00,144.80796,R,ugm-3,81.06318,R,ugm-3,303.09895,R,ugm-3
07-01-2018,22:00,118.74315,R,ugm-3,74.90596,R,ugm-3,256.97624,R,ugm-3
07-01-2018,23:00,112.84459,R,ugm-3,67.87431,R,ugm-3,240.90027,R,ugm-3
07-01-2018,24:00,85.11212,R,ugm-3,57.52796,R,ugm-3,188.03139,R,ugm-3
08-01-2018,01:00,48.29783,R,ugm-3,53.79801,R,ugm-3,127.85365,R,ugm-3
08-01-2018,02:00,,,,,,,,,
08-01-2018,03:00,33.29468,R,ugm-3,49.08923,R,ugm-3,100.14035,R,ugm-3
08-01-2018,04:00,27.68391,R,ugm-3,48.76227,R,ugm-3,91.21033,R,ugm-3
08-01-2018,05:00,32.92474,R,ugm-3,46.83897,R,ugm-3,97.32286,R,ugm-3
08-01-2018,06:00,69.61054,R,ugm-3,54.53094,R,ugm-3,161.26560,R,ugm-3
08-01-2018,07:00,149.98018,R,ugm-3,75.18231,R,ugm-3,305.14871,R,ugm-3
08-01-2018,08:00,281.61747,R,ugm-3,106.47681,R,ugm-3,538.28424,R,ugm-3
08-01-2018,09:00,266.48072,R,ugm-3,121.61572,R,ugm-3,530.21380,R,ugm-3
08-01-2018,10:00,346.04883,R,ugm-3,119.76231,R,ugm-3,650.36312,R,ugm-3
08-01-2018,11:00,201.18616,R,ugm-3,85.34693,R,ugm-3,393.82808,R,ugm-3
08-01-2018,12:00,98.12681,R,ugm-3,74.12853,R,ugm-3,224.58754,R,ugm-3
08-01-2018,13:00,29.62610,R,ugm-3,39.00321,R,ugm-3,84.42925,R,ugm-3
08-01-2018,14:00,30.48929,R,ugm-3,33.52505,R,ugm-3,80.27465,R,ugm-3
08-01-2018,15:00,35.05190,R,ugm-3,45.34427,R,ugm-3,99.08976,R,ugm-3
08-01-2018,16:00,37.94977,R,ugm-3,43.47966,R,ugm-3,101.66848,R,ugm-3
08-01-2018,17:00,41.98829,R,ugm-3,46.79041,R,ugm-3,111.17155,R,ugm-3
08-01-2018,18:00,24.10781,R,ugm-3,30.17747,R,ugm-3,67.14227,R,ugm-3
08-01-2018,19:00,10.69746,R,ugm-3,22.23053,R,ugm-3,38.63307,R,ugm-3
08-01-2018,20:00,32.55479,R,ugm-3,40.43411,R,ugm-3,90.35076,R,ugm-3
08-01-2018,21:00,8.57030,R,ugm-3,17.42169,R,ugm-3,30.56263,R,ugm-3
08-01-2018,22:00,5.73408,R,ugm-3,14.55962,R,ugm-3,23.35176,R,ugm-3
08-01-2018,23:00,3.05201,R,ugm-3,9.78981,R,ugm-3,14.46949,R,ugm-3
08-01-2018,24:00,1.88053,R,ugm-3,7.71797,R,ugm-3,10.60141,R,ugm-3
09-01-2018,01:00,1.80543,R,ugm-3,6.06527,R,ugm-3,8.83355,R,ugm-3
09-01-2018,02:00,,,,,,,,,
09-01-2018,03:00,1.50794,R,ugm-3,8.93634,R,ugm-3,11.24848,R,ugm-3
09-01-2018,04:00,1.53872,R,ugm-3,8.46019,R,ugm-3,10.81952,R,ugm-3
09-01-2018,05:00,2.76969,R,ugm-3,11.57734,R,ugm-3,15.82414,R,ugm-3
09-01-2018,06:00,17.87988,R,ugm-3,25.01393,R,ugm-3,52.42937,R,ugm-3
09-01-2018,07:00,49.76208,R,ugm-3,49.62502,R,ugm-3,125.92582,R,ugm-3
09-01-2018,08:00,82.53674,R,ugm-3,67.05281,R,ugm-3,193.60737,R,ugm-3
09-01-2018,09:00,100.50894,R,ugm-3,72.57397,R,ugm-3,226.68554,R,ugm-3
09-01-2018,10:00,165.19658,R,ugm-3,72.62216,R,ugm-3,325.92004,R,ugm-3
09-01-2018,11:00,49.94673,R,ugm-3,40.95320,R,ugm-3,117.53712,R,ugm-3
09-01-2018,12:00,37.51390,R,ugm-3,39.66448,R,ugm-3,97.18499,R,ugm-3
09-01-2018,13:00,30.28194,R,ugm-3,30.83018,R,ugm-3,77.26183,R,ugm-3
09-01-2018,14:00,28.55857,R,ugm-3,28.32502,R,ugm-3,72.11422,R,ugm-3
09-01-2018,15:00,29.88187,R,ugm-3,28.82213,R,ugm-3,74.64036,R,ugm-3
09-01-2018,16:00,57.39412,R,ugm-3,43.30866,R,ugm-3,131.31175,R,ugm-3
09-01-2018,17:00,36.52912,R,ugm-3,36.74178,R,ugm-3,92.75233,R,ugm-3
09-01-2018,18:00,36.28293,R,ugm-3,34.78379,R,ugm-3,90.41684,R,ugm-3
09-01-2018,19:00,23.14229,R,ugm-3,31.43459,R,ugm-3,66.91895,R,ugm-3
09-01-2018,20:00,13.84845,R,ugm-3,28.90756,R,ugm-3,50.14154,R,ugm-3
09-01-2018,21:00,10.98643,R,ugm-3,33.10526,R,ugm-3,49.95089,R,ugm-3
09-01-2018,22:00,7.17042,R,ugm-3,27.27896,R,ugm-3,38.27344,R,ugm-3
09-01-2018,23:00,5.66248,R,ugm-3,19.72485,R,ugm-3,28.40719,R,ugm-3
09-01-2018,24:00,2.36962,R,ugm-3,17.57669,R,ugm-3,21.21007,R,ugm-3
10-01-2018,01:00,1.67937,R,ugm-3,13.47263,R,ugm-3,16.04763,R,ugm-3
10-01-2018,02:00,,,,,,,,,
10-01-2018,03:00,2.11970,R,ugm-3,16.77767,R,ugm-3,20.02782,R,ugm-3
10-01-2018,04:00,4.36228,R,ugm-3,21.37877,R,ugm-3,28.06750,R,ugm-3
10-01-2018,05:00,6.85061,R,ugm-3,22.79629,R,ugm-3,33.30042,R,ugm-3
10-01-2018,06:00,7.52646,R,ugm-3,23.61532,R,ugm-3,35.15573,R,ugm-3
10-01-2018,07:00,19.04655,R,ugm-3,26.21711,R,ugm-3,55.42141,R,ugm-3
10-01-2018,08:00,63.06866,R,ugm-3,39.58993,R,ugm-3,136.29386,R,ugm-3
10-01-2018,09:00,133.04939,R,ugm-3,54.64291,R,ugm-3,258.64912,R,ugm-3
10-01-2018,10:00,116.82910,R,ugm-3,48.21128,R,ugm-3,227.34673,R,ugm-3
10-01-2018,11:00,74.37372,R,ugm-3,41.04671,R,ugm-3,155.08481,R,ugm-3
10-01-2018,12:00,65.15764,R,ugm-3,42.19066,R,ugm-3,142.09765,R,ugm-3
10-01-2018,13:00,71.08665,R,ugm-3,40.18788,R,ugm-3,149.18588,R,ugm-3
10-01-2018,14:00,44.05283,R,ugm-3,36.30300,R,ugm-3,103.84974,R,ugm-3
10-01-2018,15:00,62.63858,R,ugm-3,46.24345,R,ugm-3,142.28794,R,ugm-3
10-01-2018,16:00,64.08243,R,ugm-3,50.49938,R,ugm-3,148.75774,R,ugm-3
10-01-2018,17:00,65.09620,R,ugm-3,48.89738,R,ugm-3,148.71016,R,ugm-3
10-01-2018,18:00,44.51364,R,ugm-3,45.34871,R,ugm-3,113.60201,R,ugm-3
10-01-2018,19:00,22.70226,R,ugm-3,37.59498,R,ugm-3,72.40463,R,ugm-3
10-01-2018,20:00,25.28276,R,ugm-3,35.44600,R,ugm-3,74.21237,R,ugm-3
10-01-2018,21:00,16.71181,R,ugm-3,29.98728,R,ugm-3,55.61170,R,ugm-3
10-01-2018,22:00,13.97771,R,ugm-3,30.84947,R,ugm-3,52.28166,R,ugm-3
10-01-2018,23:00,15.08364,R,ugm-3,26.20427,R,ugm-3,49.33219,R,ugm-3
10-01-2018,24:00,5.31460,R,ugm-3,15.30407,R,ugm-3,23.45301,R,ugm-3
11-01-2018,01:00,3.76172,R,ugm-3,14.42737,R,ugm-3,20.19525,R,ugm-3
11-01-2018,02:00,,,,,,,,,
11-01-2018,03:00,4.99859,R,ugm-3,14.60419,R,ugm-3,22.26859,R,ugm-3
11-01-2018,04:00,2.63729,R,ugm-3,11.19761,R,ugm-3,15.24140,R,ugm-3
11-01-2018,05:00,4.53859,R,ugm-3,13.12538,R,ugm-3,20.08446,R,ugm-3
11-01-2018,06:00,7.72787,R,ugm-3,16.06958,R,ugm-3,27.91882,R,ugm-3
11-01-2018,07:00,34.74477,R,ugm-3,33.61565,R,ugm-3,86.89022,R,ugm-3
11-01-2018,08:00,56.39508,R,ugm-3,46.61797,R,ugm-3,133.08922,R,ugm-3
11-01-2018,09:00,61.11767,R,ugm-3,45.69174,R,ugm-3,139.40419,R,ugm-3
11-01-2018,10:00,82.92132,R,ugm-3,54.37559,R,ugm-3,181.51984,R,ugm-3
11-01-2018,11:00,18.15437,R,ugm-3,35.93066,R,ugm-3,63.76697,R,ugm-3
11-01-2018,12:00,21.37432,R,ugm-3,35.55165,R,ugm-3,68.32515,R,ugm-3
11-01-2018,13:00,34.77543,R,ugm-3,37.22467,R,ugm-3,90.54625,R,ugm-3
11-01-2018,14:00,51.27383,R,ugm-3,45.49654,R,ugm-3,124.11532,R,ugm-3
11-01-2018,15:00,41.12333,R,ugm-3,41.78314,R,ugm-3,104.83803,R,ugm-3
11-01-2018,16:00,60.38168,R,ugm-3,47.01016,R,ugm-3,139.59412,R,ugm-3
11-01-2018,17:00,98.65306,R,ugm-3,57.50801,R,ugm-3,208.77392,R,ugm-3
11-01-2018,18:00,144.06965,R,ugm-3,67.44835,R,ugm-3,288.35207,R,ugm-3
11-01-2018,19:00,193.47285,R,ugm-3,71.41842,R,ugm-3,368.07266,R,ugm-3
11-01-2018,20:00,160.35339,R,ugm-3,56.86704,R,ugm-3,302.73881,R,ugm-3
11-01-2018,21:00,105.27695,R,ugm-3,46.54434,R,ugm-3,207.96675,R,ugm-3
11-01-2018,22:00,155.26280,R,ugm-3,55.93599,R,ugm-3,294.00231,R,ugm-3
11-01-2018,23:00,118.34074,R,ugm-3,52.67550,R,ugm-3,234.12877,R,ugm-3
11-01-2018,24:00,105.64495,R,ugm-3,52.20010,R,ugm-3,214.18676,R,ugm-3
12-01-2018,01:00,113.59126,R,ugm-3,49.06746,R,ugm-3,223.23829,R,ugm-3
12-01-2018,02:00,,,,,,,,,
12-01-2018,03:00,84.91793,R,ugm-3,51.77175,R,ugm-3,181.97743,R,ugm-3
12-01-2018,04:00,87.27506,R,ugm-3,47.25712,R,ugm-3,181.07702,R,ugm-3
12-01-2018,05:00,70.62209,R,ugm-3,42.03525,R,ugm-3,150.32094,R,ugm-3
12-01-2018,06:00,69.73434,R,ugm-3,43.20689,R,ugm-3,150.13138,R,ugm-3
12-01-2018,07:00,118.77490,R,ugm-3,49.14401,R,ugm-3,231.26299,R,ugm-3
12-01-2018,08:00,63.82620,R,ugm-3,44.16222,R,ugm-3,142.02770,R,ugm-3
12-01-2018,09:00,23.51009,R,ugm-3,38.68567,R,ugm-3,74.73396,R,ugm-3
12-01-2018,10:00,27.06109,R,ugm-3,29.54446,R,ugm-3,71.03754,R,ugm-3
12-01-2018,11:00,,,,,,,,,
12-01-2018,12:00,25.91824,R,ugm-3,29.32222,R,ugm-3,69.06296,R,ugm-3
12-01-2018,13:00,18.64276,R,ugm-3,32.87960,R,ugm-3,61.46477,R,ugm-3
12-01-2018,14:00,18.85705,R,ugm-3,40.98645,R,ugm-3,69.90019,R,ugm-3
12-01-2018,15:00,24.45906,R,ugm-3,45.09733,R,ugm-3,82.60069,R,ugm-3
12-01-2018,16:00,20.99989,R,ugm-3,44.95146,R,ugm-3,77.15085,R,ugm-3
12-01-2018,17:00,25.92844,R,ugm-3,55.97133,R,ugm-3,95.72771,R,ugm-3
12-01-2018,18:00,20.54071,R,ugm-3,47.64591,R,ugm-3,79.14123,R,ugm-3
12-01-2018,19:00,14.41829,R,ugm-3,33.48068,R,ugm-3,55.58842,R,ugm-3
12-01-2018,20:00,13.31626,R,ugm-3,31.47402,R,ugm-3,51.89200,R,ugm-3
12-01-2018,21:00,8.23465,R,ugm-3,27.70256,R,ugm-3,40.32885,R,ugm-3
12-01-2018,22:00,7.25507,R,ugm-3,25.50816,R,ugm-3,36.63244,R,ugm-3
12-01-2018,23:00,3.64284,R,ugm-3,16.40333,R,ugm-3,21.98894,R,ugm-3
12-01-2018,24:00,3.21427,R,ugm-3,15.07009,R,ugm-3,19.99856,R,ugm-3
13-01-2018,01:00,2.24622,R,ugm-3,11.47287,R,ugm-3,14.91702,R,ugm-3
13-01-2018,02:00,,,,,,,,,
13-01-2018,03:00,1.43962,R,ugm-3,11.82473,R,ugm-3,14.03211,R,ugm-3
13-01-2018,04:00,1.92971,R,ugm-3,10.74143,R,ugm-3,13.70027,R,ugm-3
13-01-2018,05:00,1.10269,R,ugm-3,10.20809,R,ugm-3,11.89885,R,ugm-3
13-01-2018,06:00,2.48105,R,ugm-3,11.03379,R,ugm-3,14.83801,R,ugm-3
13-01-2018,07:00,4.28823,R,ugm-3,14.47297,R,ugm-3,21.04817,R,ugm-3
13-01-2018,08:00,7.10622,R,ugm-3,17.73705,R,ugm-3,28.63310,R,ugm-3
13-01-2018,09:00,9.70978,R,ugm-3,17.96408,R,ugm-3,32.85221,R,ugm-3
13-01-2018,10:00,14.64125,R,ugm-3,22.39627,R,ugm-3,44.84587,R,ugm-3
13-01-2018,11:00,22.51322,R,ugm-3,25.96999,R,ugm-3,60.48978,R,ugm-3
13-01-2018,12:00,25.42310,R,ugm-3,26.48586,R,ugm-3,65.46739,R,ugm-3
13-01-2018,13:00,27.16902,R,ugm-3,40.59046,R,ugm-3,82.24904,R,ugm-3
13-01-2018,14:00,9.03592,R,ugm-3,29.66363,R,ugm-3,43.51851,R,ugm-3
13-01-2018,15:00,16.01961,R,ugm-3,37.91776,R,ugm-3,62.48083,R,ugm-3
13-01-2018,16:00,15.86646,R,ugm-3,34.21791,R,ugm-3,58.54615,R,ugm-3
13-01-2018,17:00,17.30608,R,ugm-3,28.69212,R,ugm-3,55.22774,R,ugm-3
13-01-2018,18:00,10.35302,R,ugm-3,38.26300,R,ugm-3,54.13741,R,ugm-3
13-01-2018,19:00,10.72058,R,ugm-3,28.17085,R,ugm-3,44.60885,R,ugm-3
13-01-2018,20:00,4.93147,R,ugm-3,24.62705,R,ugm-3,32.18853,R,ugm-3
13-01-2018,21:00,7.81071,R,ugm-3,24.05214,R,ugm-3,36.02840,R,ugm-3
13-01-2018,22:00,1.59277,R,ugm-3,21.35549,R,ugm-3,23.79771,R,ugm-3
13-01-2018,23:00,2.32790,R,ugm-3,19.37501,R,ugm-3,22.94440,R,ugm-3
13-01-2018,24:00,1.01080,R,ugm-3,15.80065,R,ugm-3,17.35052,R,ugm-3
14-01-2018,01:00,1.14421,R,ugm-3,12.40883,R,ugm-3,14.16326,R,ugm-3
14-01-2018,02:00,,,,,,,,,
14-01-2018,03:00,1.28723,R,ugm-3,15.00321,R,ugm-3,16.97694,R,ugm-3
14-01-2018,04:00,0.95010,R,ugm-3,12.86453,R,ugm-3,14.32133,R,ugm-3
14-01-2018,05:00,0.98075,R,ugm-3,11.48973,R,ugm-3,12.99352,R,ugm-3
14-01-2018,06:00,0.95010,R,ugm-3,10.58829,R,ugm-3,12.04509,R,ugm-3
14-01-2018,07:00,0.82751,R,ugm-3,11.01337,R,ugm-3,12.28220,R,ugm-3
14-01-2018,08:00,1.19529,R,ugm-3,12.44116,R,ugm-3,14.27391,R,ugm-3
14-01-2018,09:00,1.19529,R,ugm-3,11.25562,R,ugm-3,13.08837,R,ugm-3
14-01-2018,10:00,1.16464,R,ugm-3,10.49645,R,ugm-3,12.28220,R,ugm-3
14-01-2018,11:00,1.62436,R,ugm-3,9.93381,R,ugm-3,12.42446,R,ugm-3
14-01-2018,12:00,1.34853,R,ugm-3,7.74856,R,ugm-3,9.81628,R,ugm-3
14-01-2018,13:00,1.07269,R,ugm-3,6.32206,R,ugm-3,7.96683,R,ugm-3
14-01-2018,14:00,1.01140,R,ugm-3,2.81200,R,ugm-3,4.36279,R,ugm-3
14-01-2018,15:00,0.67426,R,ugm-3,2.38050,R,ugm-3,3.41436,R,ugm-3
14-01-2018,16:00,1.13399,R,ugm-3,2.05497,R,ugm-3,3.79373,R,ugm-3
14-01-2018,17:00,0.70491,R,ugm-3,2.14382,R,ugm-3,3.22467,R,ugm-3
14-01-2018,18:00,0.95010,R,ugm-3,1.48334,R,ugm-3,2.94014,R,ugm-3
14-01-2018,19:00,0.88880,R,ugm-3,1.81444,R,ugm-3,3.17725,R,ugm-3
14-01-2018,20:00,0.55167,R,ugm-3,1.80973,R,ugm-3,2.65561,R,ugm-3
14-01-2018,21:00,0.82751,R,ugm-3,1.62389,R,ugm-3,2.89272,R,ugm-3
14-01-2018,22:00,0.67426,R,ugm-3,1.19496,R,ugm-3,2.22882,R,ugm-3
14-01-2018,23:00,0.67426,R,ugm-3,1.47949,R,ugm-3,2.51335,R,ugm-3
14-01-2018,24:00,0.70491,R,ugm-3,1.43250,R,ugm-3,2.51335,R,ugm-3
15-01-2018,01:00,0.61333,R,ugm-3,1.58957,R,ugm-3,2.53000,R,ugm-3
15-01-2018,02:00,,,,,,,,,
15-01-2018,03:00,0.79733,R,ugm-3,2.66732,R,ugm-3,3.88987,R,ugm-3
15-01-2018,04:00,0.85866,R,ugm-3,2.52584,R,ugm-3,3.84243,R,ugm-3
15-01-2018,05:00,0.76666,R,ugm-3,1.76559,R,ugm-3,2.94112,R,ugm-3
15-01-2018,06:00,1.10400,R,ugm-3,2.10223,R,ugm-3,3.79500,R,ugm-3
15-01-2018,07:00,13.18661,R,ugm-3,19.86546,R,ugm-3,40.08464,R,ugm-3
15-01-2018,08:00,40.75581,R,ugm-3,54.53681,R,ugm-3,117.02819,R,ugm-3
15-01-2018,09:00,30.78919,R,ugm-3,29.40204,R,ugm-3,76.61148,R,ugm-3
15-01-2018,10:00,54.34108,R,ugm-3,60.79314,R,ugm-3,144.11497,R,ugm-3
15-01-2018,11:00,13.79994,R,ugm-3,21.05972,R,ugm-3,42.21933,R,ugm-3
15-01-2018,12:00,2.72932,R,ugm-3,6.53596,R,ugm-3,10.72086,R,ugm-3
15-01-2018,13:00,2.36132,R,ugm-3,7.19510,R,ugm-3,10.81574,R,ugm-3
15-01-2018,14:00,2.36132,R,ugm-3,6.29378,R,ugm-3,9.91443,R,ugm-3
15-01-2018,15:00,15.05727,R,ugm-3,23.92303,R,ugm-3,47.01051,R,ugm-3
15-01-2018,16:00,29.04120,R,ugm-3,44.22625,R,ugm-3,88.75547,R,ugm-3
15-01-2018,17:00,17.84792,R,ugm-3,27.47127,R,ugm-3,54.83769,R,ugm-3
15-01-2018,18:00,20.20924,R,ugm-3,32.53167,R,ugm-3,63.51874,R,ugm-3
15-01-2018,19:00,9.75196,R,ugm-3,19.86630,R,ugm-3,34.81909,R,ugm-3
15-01-2018,20:00,12.23594,R,ugm-3,24.97581,R,ugm-3,43.73733,R,ugm-3
15-01-2018,21:00,6.77730,R,ugm-3,14.84501,R,ugm-3,25.23672,R,ugm-3
15-01-2018,22:00,7.60530,R,ugm-3,14.00237,R,ugm-3,25.66366,R,ugm-3
15-01-2018,23:00,2.11599,R,ugm-3,2.92240,R,ugm-3,6.16687,R,ugm-3
15-01-2018,24:00,3.83332,R,ugm-3,10.48825,R,ugm-3,16.36592,R,ugm-3
16-01-2018,01:00,1.71834,R,ugm-3,6.53955,R,ugm-3,9.17430,R,ugm-3
16-01-2018,02:00,,,,,,,,,
16-01-2018,03:00,0.55232,R,ugm-3,3.42391,R,ugm-3,4.27080,R,ugm-3
16-01-2018,04:00,1.87176,R,ugm-3,2.49222,R,ugm-3,5.36222,R,ugm-3